User: anonymous   Login
Location: Unspecified
(0.0000°N, 0.0000°E)
Time: 07:36:32
(UTC+00:00)
Language:

SARAL - Orbit

View from above orbital plane
View from above orbital plane
View from above satellite
View from above satellite

Ground track
Ground track

The orbit data is extracted from the following two-line orbital elements,

1 39086U 13009A   18115.91913511 -.00000002 +00000-0 +15422-4 0  9996
2 39086 098.5411 303.6252 0002133 070.6679 289.4735 14.32012959269866
Epoch (UTC): 25 April 2018 22:03:33
Eccentricity: 0.0002133
inclination: 98.5411°
perigee height: 783 km
apogee height: 786 km
right ascension of ascending node: 303.6252°
argument of perigee: 70.6679°
revolutions per day: 14.32012959
mean anomaly at epoch: 289.4735°
orbit number at epoch: 26986

The dashed part of the orbit path shows where the satellite is in the earth's shadow,  

DLR